Regional Weather Roundup
Issued by NWS

Home | Current Version | Previous Version | Graphics & Text | Print | Product List | Glossary On
Versions: 1 2 3 4 5 6 7 8 9 10 11 12 13 14 15 16 17 18 19 20 21 22 23 24 25 26 27 28 29 30 31 32 33 34 35 36 37 38 39 40 41 42 43 44 45 46 47 48 49 50
000
ASUS43 KLSX 280807
RWRMO

WEATHER SUMMARY FOR MISSOURI
NATIONAL WEATHER SERVICE SPRINGFIELD MO
300 AM CDT FRI APR 28 2017

NOTE: "FAIR" INDICATES FEW OR NO CLOUDS BELOW 12,000 FEET WITH NO
       SIGNIFICANT WEATHER AND/OR OBSTRUCTIONS TO VISIBILITY.
       CURRENT SKY AND/OR WEATHER CONDITIONS ARE NOT AVAILABLE FOR
       CHILLICOTHE AND FARMINGTON.

MOZ001>031-035>038-043-044-053-054-280900-
...NORTHERN AND WESTERN MISSOURI...

CITY           SKY/WX    TMP DP  RH WIND       PRES   REMARKS
KANSAS CTY INT LGT RAIN  50  47  89 E15       29.72F
KANSAS C DTWN  LGT RAIN  51  49  92 NE10      29.71F
LEE`S SUMMIT   CLOUDY    51  50  96 E13       29.72F
ST JOSEPH      LGT RAIN  51  49  92 NE6       29.75F
CHILLICOTHE      N/A     51  49  92 NE3       29.79F
KIRKSVILLE     CLOUDY    48  47  96 E6        29.81F

$$
MOZ066>068-077>081-088>096-101>105-280900-
...SOUTHWEST MISSOURI...

CITY           SKY/WX    TMP DP  RH WIND       PRES   REMARKS
SPRINGFIELD    LGT RAIN  56  51  84 S23G31    29.69F
JOPLIN         CLOUDY    60  53  77 S24G35    29.65F
BRANSON        MOCLDY    54  50  87 SE10      29.79F

$$
MOZ032>034-039>042-045>050-055>058-069>072-280900-
...CENTRAL MISSOURI...

CITY           SKY/WX    TMP DP  RH WIND       PRES   REMARKS
COLUMBIA       CLOUDY    52  47  83 E8        29.79S
JEFFERSON CITY MOCLDY    57  46  66 E7        29.79S
ROLLA          CLOUDY    54  50  86 SE3       29.77F
SEDALIA        CLOUDY    55  48  77 E9        29.77S
WHITEMAN AFB   LGT RAIN  53  53 100 E8        29.74S
OSAGE BEACH    LGT RAIN  55  49  80 E6        29.76F

$$
MOZ051-052-059>065-280900-
...EAST CENTRAL MISSOURI...

CITY           SKY/WX    TMP DP  RH WIND       PRES   REMARKS
ST LOUIS INTL  CLOUDY    57  49  74 CALM      29.84R
SPIRIT OF STL  CLOUDY    52  51  97 S3        29.85R
ST CHARLES     CLOUDY    53  51  93 E6        29.84R

$$
MOZ072>076-082>087-097>100-106>115-280900-
...SOUTH CENTRAL AND SOUTHEAST MISSOURI...

CITY           SKY/WX    TMP DP  RH WIND       PRES   REMARKS
CAPE GIRARDEAU CLOUDY    54  49  83 E5        29.84F
FARMINGTON     CLOUDY    53  50  89 SE3       29.82F
POPLAR BLUFF   PTCLDY    57  54  89 CALM      29.83F
WEST PLAINS    CLOUDY    53  51  93 CALM      29.84S

$$




USA.gov is the U.S. government's official web portal to all federal, state and local government web resources and services.